This is the latest recevied weather packets stored in our database for station/object NE8U. If no packets are shown the sender has not sent any weather packets the latest 10 day(s).
| Time | Temp. | Humidity | Pressure | Rain* | Wind** | Luminosity | Snow |
|---|---|---|---|---|---|---|---|
| 1777919302 | 26.67° C | 25% | 1015.2 hPa | 0 mm | - | 419 W/m² | - |
| 1777919000 | 26.67° C | 25% | 1015.5 hPa | 0 mm | - | 494 W/m² | - |
| 1777918696 | 26.67° C | 25% | 1015.4 hPa | 0 mm | - | 409 W/m² | - |
| 1777918394 | 26.11° C | 26% | 1015.5 hPa | 0 mm | - | 418 W/m² | - |
| 1777918093 | 26.11° C | 26% | 1015.4 hPa | 0 mm | - | 426 W/m² | - |
| 1777917791 | 26.11° C | 26% | 1015.4 hPa | 0 mm | - | 432 W/m² | - |
| 1777917489 | 26.11° C | 26% | 1015.5 hPa | 0 mm | - | 467 W/m² | - |
| 1777917185 | 26.11° C | 26% | 1015.4 hPa | 0 mm | - | 482 W/m² | - |
| 1777916884 | 26.11° C | 26% | 1015.2 hPa | 0 mm | - | 373 W/m² | - |
| 1777916581 | 25.56° C | 26% | 1015.2 hPa | 0 mm | - | 419 W/m² | - |
| 1777916277 | 25.56° C | 27% | 1015.3 hPa | 0 mm | - | 368 W/m² | - |
| 1777915974 | 25.56° C | 26% | 1015.6 hPa | 0 mm | - | 419 W/m² | - |
| 1777915671 | 25.56° C | 27% | 1015.4 hPa | 0 mm | - | 450 W/m² | - |
| 1777915367 | 25.56° C | 27% | 1015.4 hPa | 0 mm | - | 464 W/m² | - |
| 1777915063 | 25° C | 28% | 1015.5 hPa | 0 mm | - | 436 W/m² | - |
| 1777914761 | 25° C | 28% | 1015.3 hPa | 0 mm | - | 393 W/m² | - |
| 1777914458 | 25° C | 28% | 1015.6 hPa | 0 mm | - | 353 W/m² | - |
| 1777914155 | 25° C | 28% | 1015.4 hPa | 0 mm | - | 396 W/m² | - |
| 1777913851 | 25.56° C | 28% | 1015.2 hPa | 0 mm | - | 413 W/m² | - |
| 1777913547 | 25.56° C | 28% | 1015.3 hPa | 0 mm | - | 500 W/m² | - |
| 1777913244 | 25.56° C | 28% | 1015.1 hPa | 0 mm | - | 592 W/m² | - |
| 1777912941 | 25° C | 29% | 1015.2 hPa | 0 mm | - | 580 W/m² | - |
| 1777912637 | 25.56° C | 28% | 1015.4 hPa | 0 mm | - | 471 W/m² | - |
| 1777912333 | 25.56° C | 28% | 1015.3 hPa | 0 mm | - | 843 W/m² | - |
| 1777912029 | 25.56° C | 28% | 1015.3 hPa | 0 mm | - | 680 W/m² | - |
* Rain latest hour (hover to see other rain measurements)
** Current wind speed in m/s (hover to see current wind gust speed)